KAZEOSAT 1

Last updated on Mon Sep 07 2026 00:02:45 GMT+0000 (Coordinated Universal Time)

1 39731U 14024A 26249.61959094 .00000214 00000+0 78137-4 0 9996 2 39731 98.3141 320.0114 0001393 93.8054 266.3295 14.42062175650294
UTC large
Height (km)
Speed (km/s)
/
Latitude / Longitude
Inclination (degrees)
Orbital Period (minutes)
Azimuth
Elevation
Range (km)
Doppler Factor

Next 0 passes for location: London (51.5072 / 0.1276)

No passes found over London.
KAZEOSAT 1